星链-1170 (STARLINK-1170 )

导读 | 星芒AI

STARLINK-1170 是 SpaceX Starlink 项目中的一颗低轨通信卫星,属于第 11 批发射的星链卫星群。该卫星运行在约 550 公里的高度,旨在为全球用户提供高速互联网服务。作为星链计划的一部分,STARLINK-1170 采用先进推进系统和激光通信技术,提升网络连接效率与稳定性。该项目致力于改善偏远地区网络覆盖,推动全球互联网普及。

基本信息
目录编号:
45073
目录名称:
STARLINK-1170
国际标识:
2020-006AF
轨道中心:
EARTH
卫星名称:
星链-1170
卫星全名:
星链-1170 (STARLINK-1170 )
卫星状态:
已陨落 最后检测时间 2025-06-16
发射日期:
2020-01-29 UTC
国别 :
美国 (US)
星等 :
--
轨道信息
数据来源 国际轨道数据
星历时间: 2025-06-16T16:25:47+0800
轨道信息已过期135天
半长轴: 6528.433km
偏心率: 0.000906
轨道倾角: 53.028°
近地点辐角 220.706°
升交点赤经 318.600°
平近点角 215.512°
近地点: 144.383km
远地点: 156.213km
周期: 87.493分钟
每日圈数: 16.458467
详细信息
固有亮度:
5
最大亮度:
2.5
卫星平台:
Starlink V1.0
覆盖范围:
全球
运营商:
太空探索技术公司
运营商所在国:
美国
制造商(研发单位):
太空探索技术公司
制造商所在国:
美国
使用方式:
暂无
卫星简介
星链(Starlink)计划是由太空探索技术公司(SpaceX)提出的一个巨型低轨卫星互联网星座项目,计划在2019年至2024年间在太空搭建由约1.2万颗卫星组成的“星链”网络,其中1584颗将部署在地球上空550千米处的近地轨道,并从2020年开始工作。该卫星仍在工作。